Time,TemperatureF,DewpointF,PressureIn,WindDirection,WindDirectionDegrees,WindSpeedMPH,WindSpeedGustMPH,Humidity,HourlyPrecipIn,Conditions,Clouds,dailyrainin,SoftwareType,DateUTC
2013-08-09 00:01:00,78.0,76.0,30.06,SSE,150,0.0,3.0,94,0.00,,,0.00,,2013-08-09 04:01:00,
2013-08-09 00:12:00,79.0,77.0,30.06,SSE,159,0.0,2.0,94,0.00,,,0.00,,2013-08-09 04:12:00,
2013-08-09 00:22:00,79.0,77.0,30.06,SSE,152,0.0,1.0,94,0.00,,,0.00,,2013-08-09 04:22:00,
2013-08-09 00:33:00,79.0,77.0,30.06,SSE,152,0.0,1.0,94,0.00,,,0.00,,2013-08-09 04:33:00,
2013-08-09 00:43:00,79.0,77.0,30.06,SSE,152,0.0,1.0,94,0.00,,,0.00,,2013-08-09 04:43:00,
2013-08-09 00:53:00,79.0,77.0,30.06,SE,139,0.0,1.0,94,0.00,,,0.00,,2013-08-09 04:53:00,
2013-08-09 01:02:00,79.0,77.0,30.06,SE,139,0.0,1.0,94,0.00,,,0.00,,2013-08-09 05:02:00,
2013-08-09 01:12:00,79.0,77.0,30.06,SE,138,1.0,3.0,94,0.00,,,0.00,,2013-08-09 05:12:00,
2013-08-09 01:22:00,80.0,78.0,30.06,SSE,150,1.0,3.0,94,0.00,,,0.00,,2013-08-09 05:22:00,
2013-08-09 01:43:00,80.0,78.0,30.06,West,260,0.0,2.0,93,0.00,,,0.00,,2013-08-09 05:43:00,
2013-08-09 01:52:00,79.0,77.0,30.05,NE,37,0.0,2.0,93,0.00,,,0.00,,2013-08-09 05:52:00,
2013-08-09 02:01:00,79.0,77.0,30.05,SSE,150,1.0,3.0,93,0.00,,,0.00,,2013-08-09 06:01:00,
2013-08-09 02:11:00,79.0,77.0,30.05,NW,311,0.0,1.0,93,0.00,,,0.00,,2013-08-09 06:11:00,
2013-08-09 02:22:00,80.0,78.0,30.05,SSW,193,2.0,5.0,93,0.00,,,0.00,,2013-08-09 06:22:00,
2013-08-09 02:32:00,80.0,78.0,30.04,SW,235,1.0,4.0,93,0.00,,,0.00,,2013-08-09 06:32:00,
2013-08-09 02:43:00,80.0,78.0,30.04,East,86,1.0,3.0,93,0.00,,,0.00,,2013-08-09 06:43:00,
2013-08-09 02:52:00,80.0,78.0,30.04,NE,44,1.0,2.0,93,0.00,,,0.00,,2013-08-09 06:52:00,
2013-08-09 03:01:00,80.0,78.0,30.04,SSW,201,1.0,3.0,93,0.00,,,0.00,,2013-08-09 07:01:00,
2013-08-09 03:12:00,80.0,78.0,30.04,SSW,201,1.0,3.0,93,0.00,,,0.00,,2013-08-09 07:12:00,
2013-08-09 03:33:00,80.0,78.0,30.03,West,264,1.0,5.0,93,0.00,,,0.00,,2013-08-09 07:33:00,
2013-08-09 03:43:00,80.0,78.0,30.03,West,264,1.0,5.0,93,0.00,,,0.00,,2013-08-09 07:43:00,
2013-08-09 03:53:00,80.0,78.0,30.03,WNW,298,1.0,5.0,93,0.00,,,0.00,,2013-08-09 07:53:00,
2013-08-09 04:02:00,80.0,78.0,30.03,East,86,2.0,4.0,93,0.00,,,0.00,,2013-08-09 08:02:00,
2013-08-09 04:12:00,80.0,78.0,30.03,NW,308,1.0,5.0,94,0.00,,,0.00,,2013-08-09 08:12:00,
2013-08-09 04:22:00,80.0,78.0,30.03,West,281,1.0,5.0,94,0.00,,,0.00,,2013-08-09 08:22:00,
2013-08-09 04:32:00,80.0,78.0,30.03,West,281,1.0,5.0,94,0.00,,,0.00,,2013-08-09 08:32:00,
2013-08-09 04:43:00,80.0,78.0,30.03,NW,313,1.0,6.0,93,0.00,,,0.00,,2013-08-09 08:43:00,
2013-08-09 04:53:00,80.0,78.0,30.03,NW,313,1.0,6.0,93,0.00,,,0.00,,2013-08-09 08:53:00,
2013-08-09 05:02:00,80.0,78.0,30.04,WSW,255,2.0,5.0,93,0.00,,,0.00,,2013-08-09 09:02:00,
2013-08-09 05:22:00,80.0,78.0,30.04,SE,140,1.0,2.0,93,0.00,,,0.00,,2013-08-09 09:22:00,
2013-08-09 05:32:00,80.0,78.0,30.04,NW,314,1.0,3.0,93,0.00,,,0.00,,2013-08-09 09:32:00,
2013-08-09 05:43:00,80.0,78.0,30.04,North,355,1.0,3.0,93,0.00,,,0.00,,2013-08-09 09:43:00,
2013-08-09 05:52:00,80.0,78.0,30.05,ENE,65,1.0,3.0,93,0.00,,,0.00,,2013-08-09 09:52:00,
2013-08-09 06:01:00,80.0,78.0,30.05,NW,311,1.0,4.0,93,0.00,,,0.00,,2013-08-09 10:01:00,
2013-08-09 06:12:00,80.0,78.0,30.05,West,274,1.0,3.0,93,0.00,,,0.00,,2013-08-09 10:12:00,
2013-08-09 06:22:00,80.0,78.0,30.06,WNW,303,0.0,2.0,93,0.00,,,0.00,,2013-08-09 10:22:00,
2013-08-09 06:43:00,79.0,77.0,30.06,NW,304,0.0,3.0,94,0.00,,,0.00,,2013-08-09 10:43:00,
2013-08-09 06:53:00,79.0,77.0,30.06,NE,50,0.0,1.0,94,0.00,,,0.00,,2013-08-09 10:53:00,
2013-08-09 07:02:00,79.0,77.0,30.07,NE,49,0.0,0.0,94,0.00,,,0.00,,2013-08-09 11:02:00,
2013-08-09 07:11:00,79.0,77.0,30.07,West,262,0.0,2.0,95,0.00,,,0.00,,2013-08-09 11:11:00,
2013-08-09 07:22:00,79.0,77.0,30.07,West,262,0.0,1.0,95,0.00,,,0.00,,2013-08-09 11:22:00,
2013-08-09 07:33:00,78.0,76.0,30.07,NW,307,0.0,2.0,95,0.00,,,0.00,,2013-08-09 11:33:00,
2013-08-09 07:43:00,78.0,76.0,30.08,NW,307,0.0,1.0,95,0.00,,,0.00,,2013-08-09 11:43:00,
2013-08-09 07:53:00,78.0,77.0,30.08,NW,307,0.0,0.0,96,0.00,,,0.00,,2013-08-09 11:53:00,
2013-08-09 08:02:00,78.0,77.0,30.08,NW,307,0.0,0.0,96,0.00,,,0.00,,2013-08-09 12:02:00,
2013-08-09 08:12:00,81.0,79.0,30.08,NNE,25,0.0,5.0,93,0.00,,,0.00,,2013-08-09 12:12:00,
2013-08-09 08:22:00,82.0,79.0,30.08,SSW,204,0.0,3.0,90,0.00,,,0.00,,2013-08-09 12:22:00,
2013-08-09 08:32:00,83.0,79.0,30.08,WNW,288,1.0,7.0,87,0.00,,,0.00,,2013-08-09 12:32:00,
2013-08-09 08:43:00,83.0,78.0,30.09,West,269,1.0,3.0,86,0.00,,,0.00,,2013-08-09 12:43:00,
2013-08-09 08:52:00,83.0,78.0,30.08,NNW,339,1.0,3.0,85,0.00,,,0.00,,2013-08-09 12:52:00,
2013-08-09 09:01:00,83.0,78.0,30.08,North,10,1.0,4.0,84,0.00,,,0.00,,2013-08-09 13:01:00,
2013-08-09 09:12:00,84.0,78.0,30.09,SE,134,1.0,4.0,82,0.00,,,0.00,,2013-08-09 13:12:00,
2013-08-09 09:32:00,85.0,78.0,30.09,East,90,1.0,4.0,80,0.00,,,0.00,,2013-08-09 13:32:00,
2013-08-09 09:43:00,85.0,78.0,30.08,NNW,328,1.0,5.0,81,0.00,,,0.00,,2013-08-09 13:43:00,
2013-08-09 09:52:00,84.0,77.0,30.08,SE,144,1.0,3.0,80,0.00,,,0.00,,2013-08-09 13:52:00,
2013-08-09 10:02:00,84.0,77.0,30.08,WNW,298,1.0,5.0,79,0.00,,,0.00,,2013-08-09 14:02:00,
2013-08-09 10:43:00,84.0,79.0,30.08,NNW,329,1.0,7.0,84,0.00,,,0.00,,2013-08-09 14:43:00,
2013-08-09 10:53:00,83.0,78.0,30.08,NE,37,1.0,3.0,84,0.00,,,0.00,,2013-08-09 14:53:00,
2013-08-09 11:02:00,83.0,78.0,30.08,NE,53,1.0,3.0,84,0.00,,,0.00,,2013-08-09 15:02:00,
2013-08-09 11:12:00,83.0,79.0,30.09,NNE,16,1.0,3.0,87,0.00,,,0.00,,2013-08-09 15:12:00,
2013-08-09 11:33:00,86.0,80.0,30.09,West,276,1.0,7.0,82,0.00,,,0.00,,2013-08-09 15:33:00,
2013-08-09 11:44:00,87.0,80.0,30.09,South,190,2.0,8.0,81,0.00,,,0.00,,2013-08-09 15:44:00,
2013-08-09 11:53:00,87.0,80.0,30.09,NW,314,5.0,13.0,79,0.00,,,0.00,,2013-08-09 15:53:00,
2013-08-09 12:02:00,87.0,80.0,30.09,East,85,3.0,9.0,79,0.00,,,0.00,,2013-08-09 16:02:00,
2013-08-09 12:22:00,87.0,79.0,30.09,NE,56,1.0,7.0,78,0.00,,,0.00,,2013-08-09 16:22:00,
2013-08-09 12:32:00,88.0,80.0,30.09,WSW,250,2.0,9.0,77,0.00,,,0.00,,2013-08-09 16:32:00,
2013-08-09 12:43:00,88.0,79.0,30.09,South,176,2.0,8.0,75,0.00,,,0.00,,2013-08-09 16:43:00,
2013-08-09 12:53:00,88.0,79.0,30.08,South,190,2.0,8.0,75,0.00,,,0.00,,2013-08-09 16:53:00,
2013-08-09 13:02:00,88.0,79.0,30.08,South,190,2.0,8.0,75,0.00,,,0.00,,2013-08-09 17:02:00,
2013-08-09 13:22:00,88.0,78.0,30.08,NNW,347,2.0,10.0,72,0.00,,,0.00,,2013-08-09 17:22:00,
2013-08-09 13:33:00,88.0,77.0,30.08,NNW,338,3.0,10.0,71,0.00,,,0.00,,2013-08-09 17:33:00,
2013-08-09 13:43:00,88.0,79.0,30.08,South,172,3.0,12.0,74,0.00,,,0.00,,2013-08-09 17:43:00,
2013-08-09 13:52:00,89.0,79.0,30.08,NE,48,3.0,6.0,72,0.00,,,0.00,,2013-08-09 17:52:00,
2013-08-09 14:22:00,88.0,79.0,30.07,WSW,238,2.0,9.0,75,0.00,,,0.00,,2013-08-09 18:22:00,
2013-08-09 14:32:00,88.0,79.0,30.07,South,184,3.0,12.0,74,0.00,,,0.00,,2013-08-09 18:32:00,
2013-08-09 14:43:00,87.0,79.0,30.07,SSE,153,5.0,9.0,78,0.00,,,0.00,,2013-08-09 18:43:00,
2013-08-09 14:53:00,88.0,81.0,30.07,SE,146,3.0,12.0,79,0.00,,,0.00,,2013-08-09 18:53:00,
2013-08-09 15:02:00,87.0,79.0,30.07,ESE,115,4.0,9.0,78,0.00,,,0.00,,2013-08-09 19:02:00,
2013-08-09 15:11:00,87.0,79.0,30.07,ESE,115,4.0,9.0,78,0.00,,,0.00,,2013-08-09 19:11:00,
2013-08-09 15:43:00,88.0,80.0,30.06,SSE,148,4.0,13.0,77,0.00,,,0.00,,2013-08-09 19:43:00,
2013-08-09 15:52:00,88.0,80.0,30.06,SSE,157,2.0,11.0,77,0.00,,,0.00,,2013-08-09 19:52:00,
2013-08-09 16:02:00,88.0,79.0,30.06,North,8,3.0,9.0,76,0.00,,,0.00,,2013-08-09 20:02:00,
2013-08-09 16:11:00,87.0,79.0,30.06,SE,145,3.0,11.0,77,0.00,,,0.00,,2013-08-09 20:11:00,
2013-08-09 16:22:00,88.0,79.0,30.05,NW,309,3.0,7.0,76,0.00,,,0.00,,2013-08-09 20:22:00,
2013-08-09 16:32:00,87.0,79.0,30.05,SSE,159,5.0,10.0,78,0.00,,,0.00,,2013-08-09 20:32:00,
2013-08-09 16:43:00,86.0,79.0,30.04,West,276,3.0,8.0,79,0.00,,,0.00,,2013-08-09 20:43:00,
2013-08-09 16:52:00,86.0,78.0,30.04,SW,231,4.0,15.0,78,0.00,,,0.00,,2013-08-09 20:52:00,
2013-08-09 17:22:00,87.0,79.0,30.04,SSE,160,4.0,12.0,78,0.00,,,0.00,,2013-08-09 21:22:00,
2013-08-09 17:33:00,87.0,79.0,30.04,South,170,3.0,9.0,78,0.00,,,0.00,,2013-08-09 21:33:00,
2013-08-09 17:43:00,87.0,79.0,30.04,North,355,4.0,9.0,77,0.00,,,0.00,,2013-08-09 21:43:00,
2013-08-09 17:52:00,87.0,79.0,30.03,SE,129,2.0,10.0,78,0.00,,,0.00,,2013-08-09 21:52:00,
2013-08-09 18:02:00,86.0,78.0,30.03,NNW,338,3.0,8.0,77,0.00,,,0.00,,2013-08-09 22:02:00,
2013-08-09 18:22:00,86.0,78.0,30.03,SSE,165,4.0,8.0,78,0.00,,,0.00,,2013-08-09 22:22:00,
2013-08-09 18:32:00,86.0,78.0,30.03,SW,225,4.0,11.0,78,0.00,,,0.00,,2013-08-09 22:32:00,
2013-08-09 18:42:00,86.0,78.0,30.03,NE,53,3.0,8.0,78,0.00,,,0.00,,2013-08-09 22:42:00,
2013-08-09 18:52:00,85.0,78.0,30.03,NNE,23,3.0,8.0,80,0.00,,,0.00,,2013-08-09 22:52:00,
2013-08-09 19:02:00,85.0,78.0,30.03,NNW,328,2.0,11.0,81,0.00,,,0.00,,2013-08-09 23:02:00,
2013-08-09 19:22:00,84.0,78.0,30.03,West,280,2.0,10.0,82,0.00,,,0.00,,2013-08-09 23:22:00,
2013-08-09 19:43:00,83.0,78.0,30.03,WNW,298,2.0,13.0,85,0.00,,,0.00,,2013-08-09 23:43:00,
2013-08-09 19:52:00,82.0,77.0,30.03,WNW,295,3.0,9.0,86,0.00,,,0.00,,2013-08-09 23:52:00,
2013-08-09 20:01:00,82.0,77.0,30.04,NW,304,2.0,9.0,86,0.00,,,0.00,,2013-08-10 00:01:00,
2013-08-09 20:22:00,81.0,76.0,30.05,NE,34,1.0,7.0,86,0.00,,,0.00,,2013-08-10 00:22:00,
2013-08-09 20:33:00,81.0,76.0,30.05,NNW,328,2.0,6.0,86,0.00,,,0.00,,2013-08-10 00:33:00,
2013-08-09 20:43:00,81.0,77.0,30.05,NNW,327,2.0,5.0,87,0.00,,,0.00,,2013-08-10 00:43:00,
2013-08-09 20:52:00,81.0,77.0,30.05,NNW,327,2.0,5.0,87,0.00,,,0.00,,2013-08-10 00:52:00,
2013-08-09 21:02:00,81.0,77.0,30.05,NNW,339,2.0,5.0,88,0.00,,,0.00,,2013-08-10 01:02:00,
2013-08-09 21:11:00,81.0,77.0,30.05,NNW,339,2.0,5.0,88,0.00,,,0.00,,2013-08-10 01:11:00,
2013-08-09 21:22:00,81.0,77.0,30.05,East,95,2.0,5.0,87,0.00,,,0.00,,2013-08-10 01:22:00,
2013-08-09 21:32:00,81.0,77.0,30.05,East,95,2.0,5.0,87,0.00,,,0.00,,2013-08-10 01:32:00,
2013-08-09 21:42:00,81.0,77.0,30.05,East,95,2.0,5.0,87,0.00,,,0.00,,2013-08-10 01:42:00,
2013-08-09 21:52:00,81.0,77.0,30.07,ENE,65,3.0,6.0,88,0.00,,,0.00,,2013-08-10 01:52:00,
2013-08-09 22:03:00,81.0,77.0,30.07,ENE,65,3.0,6.0,88,0.00,,,0.00,,2013-08-10 02:03:00,
2013-08-09 22:11:00,81.0,77.0,30.07,ENE,65,3.0,6.0,88,0.00,,,0.00,,2013-08-10 02:11:00,
2013-08-09 22:21:00,81.0,77.0,30.07,ENE,65,3.0,6.0,88,0.00,,,0.00,,2013-08-10 02:21:00,
2013-08-09 22:32:00,81.0,77.0,30.07,NW,312,1.0,5.0,88,0.00,,,0.00,,2013-08-10 02:32:00,
2013-08-09 22:42:00,81.0,77.0,30.07,NW,312,1.0,5.0,88,0.00,,,0.00,,2013-08-10 02:42:00,
2013-08-09 22:52:00,81.0,77.0,30.07,NW,312,1.0,5.0,88,0.00,,,0.00,,2013-08-10 02:52:00,
2013-08-09 23:01:00,81.0,78.0,30.07,NNW,330,2.0,6.0,90,0.00,,,0.00,,2013-08-10 03:01:00,
2013-08-09 23:11:00,81.0,78.0,30.07,NNW,330,2.0,6.0,90,0.00,,,0.00,,2013-08-10 03:11:00,
2013-08-09 23:22:00,81.0,78.0,30.07,NNW,330,2.0,6.0,90,0.00,,,0.00,,2013-08-10 03:22:00,
2013-08-09 23:32:00,81.0,78.0,30.07,ESE,105,1.0,5.0,90,0.00,,,0.00,,2013-08-10 03:32:00,
2013-08-09 23:42:00,81.0,78.0,30.07,ESE,105,1.0,5.0,90,0.00,,,0.00,,2013-08-10 03:42:00,
2013-08-09 23:52:00,81.0,78.0,30.08,NNW,342,2.0,8.0,92,0.00,,,0.00,,2013-08-10 03:52:00,